Location: Newark
(40.3500°N, 15.2333°E)
Time: 05:52:09
(UTC+00:00)

Altair - Pass Details

Date: 22 January 2020
Orbit: 1502 x 1682 km, 47.2° (Epoch: 19 February)

Event Time Altitude Azimuth Distance (km) Brightness Sun altitude
Rises 09:02:04 0° 246° (WSW) 4,890 10.1 22.9°
Reaches altitude 10° 09:05:12 10° 247° (WSW) 3,918 9.6 23.2°
Maximum altitude 09:15:22 81° 335° (NNW) 1,704 8.1 24.2°
Drops below altitude 10° 09:25:34 10° 64° (ENE) 3,930 9.7 25.1°
Sets 09:28:43 0° 65° (ENE) 4,906 10.2 25.4°
